Weather History for KCOM - April, 2013

Change the Weather History Date:

Friday, April 12, 2013

  Actual Average (KABI) Record (KABI)
Temperature  
Mean Temperature 61 °F 64 °F  
Max Temperature 80 °F 77 °F 98 °F (1972)
Min Temperature 42 °F 51 °F 28 °F (1997)
Degree Days  
Heating Degree Days 4 4  
Month to date heating degree days 63  
Since 1 July heating degree days 2494  
Cooling Degree Days 0 3  
Month to date cooling degree days 28  
Year to date cooling degree days 62  
Growing Degree Days 11 (Base 50)    
Moisture  
Dew Point 38 °F    
Average Humidity 44    
Maximum Humidity 81    
Minimum Humidity 21    
Precipitation  
Precipitation 0.00 in 0.05 in 1.85 in (1954)
Month to date precipitation 0.55  
Year to date precipitation 4.67  
Sea Level Pressure  
Sea Level Pressure 29.90 in    
Wind  
Wind Speed 7 mph (SSE)    
Max Wind Speed 14 mph    
Max Gust Speed 22 mph    
Visibility 10 miles    
Events      
T = Trace of Precipitation, MM = Missing Value Source: NWS Daily Summary

Daily Weather History Graph

Daily Weather History Graph

Search for Another Location

Airport or City:

Trip Planner

Search our weather history database for the weather conditions in past years. The results will help you decide how hot, cold, wet, or windy it might be!

Date:

Astronomy

Apr. 12, 2013 Rise Set
Actual Time 7:12 AM CDT 8:04 PM CDT
Civil Twilight 6:47 AM CDT 8:29 PM CDT
Nautical Twilight 6:17 AM CDT 8:59 PM CDT
Astronomical Twilight 5:47 AM CDT 9:29 PM CDT
Moon 8:30 AM CDT (4/12) 10:27 PM CDT (4/12)
Length of Visible Light 13h 42m
Length of Day
12h 52m
Waxing Crescent, 5% of the Moon is Illuminated
Apr 12
Waxing Crescent
Apr 18
First Quarter
Apr 25
Full
May 2
Last Quarter
May 9
New

Hourly Weather History & Observations

Time (CDT) Temp. Windchill Dew Point Humidity Pressure Visibility Wind Dir Wind Speed Gust Speed Precip Events Conditions
12:15 AM 51.4 °F - 35.1 °F 54% 29.88 in 10.0 mi South 5.8 mph - N/A   Clear
12:35 AM 50.9 °F - 35.6 °F 56% 29.88 in 10.0 mi South 6.9 mph - N/A   Clear
12:55 AM 50.9 °F - 36.1 °F 57% 29.89 in 10.0 mi South 8.1 mph - N/A   Clear
1:15 AM 50.0 °F - 36.5 °F 60% 29.89 in 10.0 mi SSW 5.8 mph - N/A   Clear
1:35 AM 50.4 °F - 36.9 °F 60% 29.89 in 10.0 mi SSW 6.9 mph - N/A   Clear
1:55 AM 50.0 °F - 37.4 °F 62% 29.89 in 10.0 mi SSW 8.1 mph - N/A   Clear
2:15 AM 50.0 °F - 37.8 °F 63% 29.89 in 10.0 mi SSW 6.9 mph - N/A   Clear
2:55 AM 49.6 °F - 38.1 °F 65% 29.88 in 10.0 mi SSW 6.9 mph - N/A   Clear
3:15 AM 49.6 °F - 38.3 °F 65% 29.88 in 10.0 mi SSW 6.9 mph - N/A   Clear
3:35 AM 49.1 °F - 38.3 °F 66% 29.87 in 10.0 mi SW 5.8 mph - N/A   Clear
3:55 AM 48.6 °F - 38.3 °F 68% 29.88 in 10.0 mi SSW 8.1 mph - N/A   Clear
4:15 AM 50.0 °F - 37.8 °F 63% 29.87 in 10.0 mi SSW 11.5 mph 16.1 mph N/A   Clear
4:35 AM 49.6 °F - 37.6 °F 63% 29.88 in 10.0 mi SW 6.9 mph - N/A   Clear
4:55 AM 48.4 °F - 37.6 °F 66% 29.89 in 10.0 mi Calm Calm - N/A   Clear
5:15 AM 45.1 °F 43.7 °F 36.7 °F 72% 29.89 in 10.0 mi ENE 3.5 mph - N/A   Clear
5:35 AM 44.6 °F - 36.9 °F 74% 29.91 in 10.0 mi Calm Calm - N/A   Clear
5:55 AM 44.6 °F 42.2 °F 36.7 °F 74% 29.91 in 10.0 mi South 4.6 mph - N/A   Clear
6:15 AM 45.5 °F - 37.0 °F 72% 29.91 in 10.0 mi Calm Calm - N/A   Clear
6:35 AM 45.5 °F - 37.4 °F 73% 29.92 in 10.0 mi Calm Calm - N/A   Clear
6:55 AM 44.6 °F - 37.2 °F 75% 29.93 in 10.0 mi Calm Calm - N/A   Clear
7:15 AM 44.4 °F - 36.9 °F 75% 29.94 in 10.0 mi Calm Calm - N/A   Clear
7:35 AM 42.8 °F - 37.4 °F 81% 29.94 in 10.0 mi Calm Calm - N/A   Clear
7:55 AM 44.4 °F - 38.5 °F 80% 29.95 in 10.0 mi Calm Calm - N/A   Clear
8:15 AM 48.0 °F - 39.2 °F 72% 29.96 in 10.0 mi Calm Calm - N/A   Clear
8:35 AM 50.9 °F - 40.1 °F 67% 29.96 in 10.0 mi Calm Calm - N/A   Clear
8:55 AM 53.8 °F - 40.3 °F 60% 29.96 in 10.0 mi Calm Calm - N/A   Clear
9:15 AM 55.6 °F - 40.1 °F 56% 29.96 in 10.0 mi Calm Calm - N/A   Clear
9:55 AM 61.0 °F - 39.4 °F 45% 29.98 in 10.0 mi SW 9.2 mph - N/A   Clear
10:15 AM 62.6 °F - 39.7 °F 43% 29.98 in 10.0 mi South 4.6 mph - N/A   Clear
10:35 AM 63.9 °F - 39.9 °F 41% 29.98 in 10.0 mi South 6.9 mph - N/A   Clear
10:55 AM 65.1 °F - 40.5 °F 40% 29.98 in 10.0 mi SSW 4.6 mph - N/A   Clear
11:15 AM 66.0 °F - 40.5 °F 39% 29.99 in 10.0 mi SSE 8.1 mph - N/A   Clear
11:35 AM 67.3 °F - 40.6 °F 38% 29.98 in 10.0 mi SSE 9.2 mph - N/A   Clear
11:55 AM 68.5 °F - 41.0 °F 37% 29.98 in 10.0 mi South 9.2 mph - N/A   Clear
12:15 PM 70.3 °F - 41.5 °F 35% 29.97 in 10.0 mi SSE 9.2 mph 16.1 mph N/A   Clear
12:35 PM 71.1 °F - 40.1 °F 32% 29.96 in 10.0 mi South 6.9 mph - N/A   Clear
12:55 PM 72.1 °F - 40.5 °F 32% 29.95 in 10.0 mi SSE 5.8 mph 9.2 mph N/A   Clear
1:15 PM 74.5 °F - 41.0 °F 30% 29.95 in 10.0 mi SSE 9.2 mph - N/A   Clear
1:35 PM 75.0 °F - 40.6 °F 29% 29.93 in 10.0 mi SSE 9.2 mph 16.1 mph N/A   Clear
1:55 PM 76.1 °F - 39.7 °F 27% 29.92 in 10.0 mi SE 9.2 mph 16.1 mph N/A   Clear
2:15 PM 76.1 °F - 39.6 °F 27% 29.92 in 10.0 mi SSE 10.4 mph 18.4 mph N/A   Clear
2:35 PM 76.6 °F - 39.4 °F 26% 29.91 in 10.0 mi SE 4.6 mph 19.6 mph N/A   Clear
2:55 PM 78.1 °F - 40.3 °F 26% 29.90 in 10.0 mi SSE 9.2 mph 20.7 mph N/A   Clear
3:15 PM 78.8 °F - 38.3 °F 23% 29.89 in 10.0 mi South 8.1 mph 20.7 mph N/A   Clear
3:35 PM 80.1 °F - 38.5 °F 23% 29.87 in 10.0 mi South 9.2 mph 19.6 mph N/A   Clear
3:55 PM 80.2 °F - 37.4 °F 21% 29.87 in 10.0 mi South 11.5 mph 19.6 mph N/A   Clear
4:15 PM 80.1 °F - 37.0 °F 21% 29.86 in 10.0 mi South 13.8 mph 19.6 mph N/A   Clear
4:35 PM 79.9 °F - 38.7 °F 23% 29.85 in 10.0 mi SSE 8.1 mph 19.6 mph N/A   Clear
4:55 PM 80.4 °F - 38.7 °F 22% 29.84 in 10.0 mi SSE 12.7 mph 20.7 mph N/A   Clear
5:15 PM 80.6 °F - 38.1 °F 22% 29.84 in 10.0 mi South 9.2 mph - N/A   Clear
5:35 PM 80.6 °F - 37.8 °F 22% 29.83 in 10.0 mi SSE 6.9 mph 18.4 mph N/A   Clear
5:55 PM 80.4 °F - 38.1 °F 22% 29.83 in 10.0 mi SSE 9.2 mph 20.7 mph N/A   Clear
6:15 PM 80.2 °F - 38.1 °F 22% 29.82 in 10.0 mi SSE 12.7 mph 19.6 mph N/A   Clear
6:35 PM 79.7 °F - 37.9 °F 22% 29.82 in 10.0 mi SSE 11.5 mph 19.6 mph N/A   Clear
6:55 PM 79.0 °F - 38.7 °F 24% 29.82 in 10.0 mi SE 10.4 mph - N/A   Clear
7:15 PM 77.5 °F - 39.2 °F 25% 29.82 in 10.0 mi SE 11.5 mph 18.4 mph N/A   Clear
7:35 PM 76.1 °F - 39.0 °F 26% 29.82 in 10.0 mi SE 11.5 mph 17.3 mph N/A   Clear
7:55 PM 74.5 °F - 39.4 °F 28% 29.83 in 10.0 mi SE 11.5 mph - N/A   Clear
8:15 PM 73.0 °F - 40.1 °F 30% 29.83 in 10.0 mi SE 12.7 mph 20.7 mph N/A   Clear
8:35 PM 71.1 °F - 40.3 °F 33% 29.84 in 10.0 mi SE 11.5 mph - N/A   Clear
8:55 PM 70.0 °F - 40.1 °F 34% 29.85 in 10.0 mi SE 9.2 mph - N/A   Clear
9:15 PM 68.7 °F - 40.1 °F 35% 29.86 in 10.0 mi SE 10.4 mph - N/A   Clear
9:35 PM 68.9 °F - 38.8 °F 33% 29.87 in 10.0 mi SSE 13.8 mph 19.6 mph N/A   Clear
9:55 PM 68.9 °F - 37.6 °F 32% 29.88 in 10.0 mi SSE 12.7 mph 21.9 mph N/A   Clear
10:15 PM 68.9 °F - 36.5 °F 30% 29.89 in 10.0 mi SSE 12.7 mph - N/A   Clear
10:35 PM 68.0 °F - 36.3 °F 31% 29.89 in 10.0 mi SSE 12.7 mph 18.4 mph N/A   Clear
10:55 PM 66.2 °F - 36.7 °F 34% 29.90 in 10.0 mi SSE 10.4 mph - N/A   Clear
11:15 PM 65.5 °F - 37.0 °F 35% 29.90 in 10.0 mi SSE 12.7 mph 16.1 mph N/A   Clear
11:35 PM 65.3 °F - 37.0 °F 35% 29.90 in 10.0 mi SSE 12.7 mph 18.4 mph N/A   Clear
11:55 PM 64.8 °F - 37.4 °F 36% 29.90 in 10.0 mi SSE 11.5 mph - N/A   Clear